Weather History for Ann Arbor, MI

Change the Weather History Date:

Friday, May 24, 2013

  Actual Average Record
Temperature  
Mean Temperature 48 °F -  
Max Temperature 57 °F 66 °F 87 °F (2007)
Min Temperature 37 °F 43 °F 33 °F (2008)
Degree Days  
Heating Degree Days 17    
Moisture  
Dew Point 36 °F    
Average Humidity 70    
Maximum Humidity 93    
Minimum Humidity 44    
Precipitation  
Precipitation 0.00 in - - ()
Sea Level Pressure  
Sea Level Pressure 30.28 in    
Wind  
Wind Speed 8 mph (North)    
Max Wind Speed 15 mph    
Max Gust Speed 22 mph    
Visibility 10 miles    
Events      
Averages and records for this station are not official NWS values.
T = Trace of Precipitation, MM = Missing Value Source: NWS Daily Summary

Daily Weather History Graph

Daily Weather History Graph

Search for Another Location

Airport:

Trip Planner

Search our weather history database for the weather conditions in past years. The results will help you decide how hot, cold, wet, or windy it might be!

Date:

Astronomy

May. 24, 2013 Rise Set
Actual Time 6:05 AM EDT 8:58 PM EDT
Civil Twilight 5:32 AM EDT 9:31 PM EDT
Nautical Twilight 4:50 AM EDT 10:13 PM EDT
Astronomical Twilight 4:02 AM EDT 11:02 PM EDT
Moon 8:38 PM EDT (5/24) 5:38 AM EDT (5/24)
Length of Visible Light 15h 58m
Length of Day
14h 52m
Full, 100% of the Moon is Illuminated
May 24
Full
May 25
Full
May 31
Last Quarter
Jun 8
New
Jun 16
First Quarter

Hourly Weather History & Observations

Time (EDT) Temp. Windchill Dew Point Humidity Pressure Visibility Wind Dir Wind Speed Gust Speed Precip Events Conditions
12:53 AM 42.1 °F 39.2 °F 39.0 °F 89% 30.17 in 10.0 mi NNW 4.6 mph - N/A   Clear
1:50 AM 42.8 °F 40.1 °F 39.2 °F 87% 30.16 in 10.0 mi NNW 4.6 mph - N/A   Mostly Cloudy
1:53 AM 43.0 °F 39.5 °F 39.9 °F 89% 30.17 in 10.0 mi NNW 5.8 mph - N/A   Mostly Cloudy
2:33 AM 44.6 °F 40.7 °F 41.0 °F 87% 30.16 in 10.0 mi NNW 6.9 mph - N/A   Overcast
2:53 AM 44.1 °F 39.5 °F 41.0 °F 89% 30.17 in 10.0 mi North 8.1 mph - N/A   Mostly Cloudy
3:16 AM 44.6 °F 41.4 °F 41.0 °F 87% 30.17 in 10.0 mi NNW 5.8 mph - N/A   Mostly Cloudy
3:53 AM 44.1 °F 40.1 °F 39.9 °F 85% 30.19 in 10.0 mi NNW 6.9 mph - N/A   Overcast
4:34 AM 44.6 °F 39.2 °F 39.2 °F 81% 30.20 in 10.0 mi North 10.4 mph - N/A   Overcast
4:53 AM 43.0 °F 38.2 °F 39.0 °F 86% 30.22 in 10.0 mi NNW 8.1 mph - N/A   Overcast
5:53 AM 41.0 °F 35.8 °F 34.0 °F 76% 30.24 in 10.0 mi NNE 8.1 mph - N/A   Partly Cloudy
6:53 AM 39.9 °F 33.9 °F 33.1 °F 77% 30.27 in 10.0 mi NNE 9.2 mph 18.4 mph N/A   Scattered Clouds
7:04 AM 39.2 °F 32.5 °F 33.8 °F 81% 30.25 in 10.0 mi NNE 10.4 mph - N/A   Mostly Cloudy
7:53 AM 42.1 °F 36.1 °F 33.1 °F 70% 30.29 in 10.0 mi NNE 10.4 mph - N/A   Mostly Cloudy
8:29 AM 41.0 °F 34.3 °F 30.2 °F 65% 30.28 in 10.0 mi North 11.5 mph 20.7 mph N/A   Scattered Clouds
8:53 AM 41.0 °F 33.1 °F 30.9 °F 67% 30.31 in 10.0 mi NNE 15.0 mph 21.9 mph N/A   Mostly Cloudy
9:53 AM 43.0 °F 36.8 °F 32.0 °F 65% 30.34 in 10.0 mi North 11.5 mph - N/A   Mostly Cloudy
10:09 AM 46.4 °F 40.7 °F 33.8 °F 62% 30.32 in 10.0 mi North 12.7 mph 17.3 mph N/A   Scattered Clouds
10:53 AM 46.9 °F - 33.1 °F 59% 30.33 in 10.0 mi North 11.5 mph - N/A   Scattered Clouds
11:53 AM 48.0 °F - 34.0 °F 58% 30.35 in 10.0 mi NNW 10.4 mph - N/A   Overcast
12:53 PM 51.1 °F - 36.0 °F 56% 30.35 in 10.0 mi North 10.4 mph 18.4 mph N/A   Mostly Cloudy
1:53 PM 50.0 °F - 35.1 °F 57% 30.35 in 10.0 mi NNW 10.4 mph - N/A   Scattered Clouds
2:53 PM 54.0 °F - 36.0 °F 51% 30.35 in 10.0 mi NNW 10.4 mph 17.3 mph N/A   Clear
3:53 PM 55.0 °F - 35.1 °F 47% 30.35 in 10.0 mi North 12.7 mph 16.1 mph N/A   Clear
4:53 PM 55.9 °F - 35.1 °F 45% 30.34 in 10.0 mi NNW 11.5 mph - N/A   Clear
5:53 PM 57.0 °F - 36.0 °F 45% 30.33 in 10.0 mi NNE 12.7 mph 18.4 mph N/A   Clear
6:53 PM 55.9 °F - 34.0 °F 44% 30.32 in 10.0 mi North 9.2 mph - N/A   Clear
7:53 PM 54.0 °F - 33.1 °F 45% 30.31 in 10.0 mi North 8.1 mph - N/A   Clear
8:53 PM 48.9 °F - 34.0 °F 56% 30.31 in 10.0 mi NE 4.6 mph - N/A   Clear
9:53 PM 39.9 °F - 35.1 °F 83% 30.31 in 10.0 mi Calm Calm - N/A   Clear
10:53 PM 41.0 °F - 36.0 °F 82% 30.34 in 10.0 mi Calm Calm - N/A   Clear
11:53 PM 37.0 °F - 35.1 °F 93% 30.35 in 10.0 mi Calm Calm - N/A   Clear